Find Tianqi Xingzuo 1-31

NORAD ID: 62366 Int'l Des: 2024-245 Owner: GUOG Country: CN Constellation: tianqi operational
LEOCIRCULAR

Live Position

Loading 3D Globe...

About Tianqi Xingzuo 1-31

Description loading...

Upcoming Passes

Passes for default location (London). Set your location on the main map for personalized predictions.

Altitude History

Loading altitude history...

Two-Line Element Set

1 62366U 24245B 26107.31329684 .00000049 00000-0 12154-3 0 9991
2 62366 44.9797 232.5946 0004321 107.2438 252.8868 13.99168225 67807
Epoch: Apr 17, 2026 • Age: 6 hours

Current Status

Altitude 914.1 km
Velocity 7.39 km/s
Sub-Earth Point -45.13°S, 85.74°E
Launch Date Dec 19, 2024
Age 1.3 years
Type other

Technical Details

Classification Payload
Mass 40.00 kg
Dry Mass 40.00 kg
Total Mass 40.00 kg
Length 0.50 m
Diameter 0.30 m
Span 0.50 m
Shape Box
Manufacturer ASES
Bus Type StarLightB
Phase Status In Orbit
Owner/State GUOG/CN

Most Searched